Location: Marcé
(47.5801°N, 0.3280°W)
Time: 01:06:57
(UTC+01:00)

Vanguard 2 - Pass Details

Date: 30 November 2021
Orbit: 553 x 2936 km, 32.9° (Epoch: 20 January)

Event Time Altitude Azimuth Distance (km) Brightness Sun altitude
Rises 18:03:14 0° 251° (WSW) 3,824 13.6 -8.4°
Reaches altitude 10° 18:05:50 10° 241° (WSW) 3,140 12.3 -8.8°
Maximum altitude 18:12:47 32° 182° (S) 2,541 10.4 -9.9°
Drops below altitude 10° 18:23:13 10° 127° (SE) 4,793 11.2 -11.5°
Sets 18:28:19 0° 119° (ESE) 6,161 11.7 -12.4°
